Weather History for KORS - October, 2013

Change the Weather History Date:

Wednesday, October 2, 2013

  Actual Average (KBLI) Record (KBLI)
Temperature  
Mean Temperature 50 °F 53 °F  
Max Temperature 51 °F 62 °F 73 °F (1993)
Min Temperature 46 °F 44 °F 27 °F (1950)
Degree Days  
Heating Degree Days 16 12  
Month to date heating degree days 24  
Cooling Degree Days 0 0  
Month to date cooling degree days 0  
Year to date cooling degree days 42  
Moisture  
Dew Point 48 °F    
Average Humidity 94    
Maximum Humidity 100    
Minimum Humidity 82    
Precipitation  
Precipitation 0.27 in 0.08 in 0.91 in (1995)
Month to date precipitation 0.15  
Year to date precipitation 22.28  
Sea Level Pressure  
Sea Level Pressure 30.08 in    
Wind  
Wind Speed 5 mph (South)    
Max Wind Speed 12 mph    
Max Gust Speed 17 mph    
Visibility 8 miles    
Events Rain    
T = Trace of Precipitation, MM = Missing Value Source: NWS Daily Summary

Daily Weather History Graph

Daily Weather History Graph

Search for Another Location

Airport or City:

Trip Planner

Search our weather history database for the weather conditions in past years. The results will help you decide how hot, cold, wet, or windy it might be!

Date:

Astronomy

Oct. 02, 2013 Rise Set
Actual Time 7:13 AM PDT 6:47 PM PDT
Civil Twilight 6:41 AM PDT 7:19 PM PDT
Nautical Twilight 6:05 AM PDT 7:55 PM PDT
Astronomical Twilight 5:27 AM PDT 8:32 PM PDT
Moon 4:42 AM PDT (10/2) 5:32 PM PDT (10/2)
Length of Visible Light 12h 37m
Length of Day
11h 34m
Waning Crescent, 6% of the Moon is Illuminated
Oct 2
Waning Crescent
Oct 4
New
Oct 11
First Quarter
Oct 18
Full
Oct 26
Last Quarter

Hourly Weather History & Observations

Time (PDT) Temp. Dew Point Humidity Pressure Visibility Wind Dir Wind Speed Gust Speed Precip Events Conditions
12:15 AM 50.0 °F 48.2 °F 94% 30.07 in 6.0 mi SSE 4.6 mph - N/A Rain Light Rain
12:35 AM 50.0 °F 50.0 °F 100% 30.07 in 10.0 mi South 8.1 mph - N/A   Overcast
12:55 AM 50.0 °F 48.2 °F 94% 30.07 in 10.0 mi South 10.4 mph - N/A   Mostly Cloudy
1:15 AM 50.0 °F 48.2 °F 94% 30.07 in 10.0 mi South 9.2 mph - N/A   Scattered Clouds
1:35 AM 50.0 °F 48.2 °F 94% 30.07 in 10.0 mi SSW 10.4 mph - N/A   Scattered Clouds
1:55 AM 50.0 °F 48.2 °F 94% 30.07 in 10.0 mi South 11.5 mph - N/A   Scattered Clouds
2:15 AM 50.0 °F 50.0 °F 100% 30.07 in 10.0 mi South 6.9 mph - N/A   Scattered Clouds
2:35 AM 50.0 °F 50.0 °F 100% 30.07 in 9.0 mi South 8.1 mph - N/A Rain Light Rain
2:55 AM 50.0 °F 48.2 °F 94% 30.07 in 10.0 mi SSW 9.2 mph - N/A Rain Light Rain
3:15 AM 50.0 °F 50.0 °F 100% 30.07 in 10.0 mi SSW 10.4 mph - N/A   Mostly Cloudy
3:35 AM 50.0 °F 50.0 °F 100% 30.07 in 10.0 mi SSW 9.2 mph - N/A   Scattered Clouds
3:55 AM 50.0 °F 48.2 °F 94% 30.07 in 9.0 mi SSW 8.1 mph - N/A Rain Light Rain
4:15 AM 50.0 °F 48.2 °F 94% 30.07 in 9.0 mi SW 8.1 mph - N/A   Partly Cloudy
4:35 AM 50.0 °F 50.0 °F 100% 30.06 in 7.0 mi SSW 4.6 mph - N/A Rain Light Rain
4:55 AM 50.0 °F 48.2 °F 94% 30.06 in 7.0 mi Calm Calm - N/A Rain Light Rain
5:15 AM 50.0 °F 48.2 °F 94% 30.06 in 3.0 mi Calm Calm - 0.01 in Rain Light Rain
5:35 AM 50.0 °F 50.0 °F 100% 30.06 in 4.0 mi Calm Calm - 0.01 in Rain Light Rain
5:55 AM 50.0 °F 50.0 °F 100% 30.05 in 7.0 mi Calm Calm - 0.01 in Rain Light Rain
6:15 AM 50.0 °F 50.0 °F 100% 30.05 in 4.0 mi Calm Calm - N/A Rain Light Rain
6:35 AM 48.2 °F 48.2 °F 100% 30.05 in 3.0 mi Calm Calm - 0.02 in Rain Rain
6:55 AM 48.2 °F 48.2 °F 100% 30.05 in 4.0 mi Calm Calm - 0.03 in Rain Light Rain
7:15 AM 48.2 °F 48.2 °F 100% 30.05 in 2.5 mi Calm Calm - 0.08 in Rain Heavy Rain
7:35 AM 48.2 °F 48.2 °F 100% 30.05 in 4.0 mi Calm Calm - 0.14 in Rain Rain
7:55 AM 48.2 °F 48.2 °F 100% 30.05 in 2.5 mi East 3.5 mph - 0.15 in Rain Rain
8:15 AM 48.2 °F 48.2 °F 100% 30.05 in 2.5 mi ENE 4.6 mph - 0.07 in Rain Heavy Rain
8:35 AM 48.2 °F 46.4 °F 93% 30.05 in 5.0 mi Calm Calm - 0.08 in Rain Light Rain
8:55 AM 48.2 °F 46.4 °F 93% 30.05 in 7.0 mi East 5.8 mph - 0.08 in Rain Light Rain
9:15 AM 48.2 °F 46.4 °F 93% 30.05 in 8.0 mi Calm Calm - N/A   Overcast
9:35 AM 48.2 °F 48.2 °F 100% 30.05 in 8.0 mi Calm Calm - N/A   Mostly Cloudy
9:55 AM 48.2 °F 48.2 °F 100% 30.05 in 10.0 mi ESE 3.5 mph - N/A   Overcast
10:15 AM 50.0 °F 48.2 °F 94% 30.05 in 10.0 mi SSE 3.5 mph - N/A   Overcast
10:35 AM 50.0 °F 48.2 °F 94% 30.05 in 10.0 mi SSE 4.6 mph - N/A   Overcast
10:55 AM 50.0 °F 48.2 °F 94% 30.05 in 10.0 mi SSE 5.8 mph - N/A   Overcast
11:15 AM 51.8 °F 46.4 °F 82% 30.05 in 10.0 mi SSE 5.8 mph - N/A   Overcast
11:35 AM 51.8 °F 48.2 °F 88% 30.05 in 10.0 mi SSE 5.8 mph - N/A   Overcast
11:55 AM 51.8 °F 48.2 °F 88% 30.05 in 10.0 mi South 6.9 mph - N/A   Overcast
12:15 PM 51.8 °F 48.2 °F 88% 30.05 in 10.0 mi South 5.8 mph - N/A   Overcast
12:35 PM 51.8 °F 46.4 °F 82% 30.05 in 10.0 mi South 11.5 mph 17.3 mph N/A   Mostly Cloudy
12:55 PM 50.0 °F 46.4 °F 87% 30.05 in 10.0 mi South 6.9 mph - N/A Rain Light Rain
1:15 PM 50.0 °F 46.4 °F 87% 30.06 in 8.0 mi South 6.9 mph 16.1 mph N/A Rain Light Rain
1:35 PM 50.0 °F 46.4 °F 87% 30.06 in 9.0 mi South 8.1 mph - N/A Rain Light Rain
1:55 PM 50.0 °F 46.4 °F 87% 30.05 in 9.0 mi South 8.1 mph - N/A Rain Light Rain
2:15 PM 50.0 °F 48.2 °F 94% 30.05 in 8.0 mi South 6.9 mph - N/A Rain Light Rain
2:35 PM 50.0 °F 48.2 °F 94% 30.05 in 10.0 mi South 9.2 mph - N/A   Overcast
2:55 PM 51.8 °F 46.4 °F 82% 30.05 in 10.0 mi South 8.1 mph - N/A   Overcast
3:15 PM 51.8 °F 48.2 °F 88% 30.05 in 10.0 mi South 6.9 mph - N/A   Mostly Cloudy
3:35 PM 51.8 °F 46.4 °F 82% 30.05 in 10.0 mi South 6.9 mph - N/A   Partly Cloudy
3:55 PM 51.8 °F 46.4 °F 82% 30.06 in 10.0 mi South 6.9 mph - N/A   Scattered Clouds
4:15 PM 50.0 °F 48.2 °F 94% 30.06 in 10.0 mi SSW 5.8 mph - N/A Rain Light Rain
4:35 PM 50.0 °F 48.2 °F 94% 30.06 in 9.0 mi South 5.8 mph - N/A   Clear
4:55 PM 50.0 °F 48.2 °F 94% 30.07 in 9.0 mi SSW 6.9 mph - N/A Rain Light Rain
5:15 PM 50.0 °F 48.2 °F 94% 30.07 in 10.0 mi Calm Calm - N/A   Clear
5:35 PM 50.0 °F 48.2 °F 94% 30.08 in 8.0 mi Calm Calm - N/A Rain Light Rain
5:55 PM 50.0 °F 48.2 °F 94% 30.08 in 10.0 mi Calm Calm - N/A   Mostly Cloudy
6:15 PM 50.0 °F 48.2 °F 94% 30.09 in 10.0 mi Calm Calm - N/A   Overcast
6:35 PM 50.0 °F 48.2 °F 94% 30.09 in 10.0 mi Calm Calm - N/A   Overcast
6:55 PM 48.2 °F 48.2 °F 100% 30.10 in 10.0 mi Calm Calm - N/A   Overcast
7:15 PM 48.2 °F 48.2 °F 100% 30.10 in 10.0 mi Calm Calm - N/A   Overcast
7:35 PM 48.2 °F 48.2 °F 100% 30.10 in 10.0 mi Calm Calm - N/A   Overcast
7:55 PM 48.2 °F 48.2 °F 100% 30.11 in 10.0 mi Calm Calm - N/A   Overcast
8:15 PM 48.2 °F 48.2 °F 100% 30.11 in 9.0 mi ENE 4.6 mph - N/A   Overcast
8:35 PM 48.2 °F 46.4 °F 93% 30.12 in 4.0 mi East 3.5 mph - N/A Rain Light Rain
8:55 PM 48.2 °F 46.4 °F 93% 30.13 in 10.0 mi Calm Calm - N/A   Overcast
9:15 PM 48.2 °F 46.4 °F 93% 30.13 in 10.0 mi Calm Calm - N/A   Overcast
9:35 PM 48.2 °F 46.4 °F 93% 30.14 in 10.0 mi Calm Calm - N/A   Overcast
9:55 PM 48.2 °F 46.4 °F 93% 30.14 in 10.0 mi Calm Calm - N/A   Overcast
10:15 PM 48.2 °F 46.4 °F 93% 30.15 in 10.0 mi Calm Calm - N/A   Overcast
10:35 PM 48.2 °F 46.4 °F 93% 30.16 in 10.0 mi Calm Calm - N/A   Overcast
10:55 PM 48.2 °F 46.4 °F 93% 30.16 in 10.0 mi Calm Calm - N/A   Overcast
11:15 PM 48.2 °F 46.4 °F 93% 30.17 in 10.0 mi Calm Calm - N/A   Overcast
11:35 PM 48.2 °F 46.4 °F 93% 30.17 in 8.0 mi Calm Calm - N/A   Overcast
11:55 PM 46.4 °F 46.4 °F 100% 30.18 in 7.0 mi Calm Calm - N/A   Overcast